When you browse on this site, cookies collect data to enhance your experience and personalize the content and advertising you see.
Visit our Privacy Policy to learn more. By continuing to use the site, you agree to this use of cookies and data.
  • In France
  • List of Countries
  • For 7 days
  • Water Temperature
  • Weather Map
  • Weather Widgets
  • user-avatar
    Login

    Hourly Weather Siva

    Today, 1 June, Monday

    Time Temperature Precipitation Wind Pressure Humidity
    00:00 +29°C° 0 mm 6 mps 753 mmHg 19%
    01:00 +29°C° 0 mm 5 mps 753 mmHg 20%
    02:00 +28°C° 0 mm 5 mps 753 mmHg 21%
    03:00 +28°C° 0 mm 4 mps 753 mmHg 22%
    04:00 +27°C° 0 mm 4 mps 753 mmHg 23%
    05:00 +26°C° 0 mm 3 mps 753 mmHg 24%
    06:00 +27°C° 0 mm 3 mps 753 mmHg 23%
    07:00 +29°C° 0 mm 3 mps 753 mmHg 21%
    08:00 +30°C° 0 mm 2 mps 753 mmHg 20%
    09:00 +33°C° 0 mm 3 mps 753 mmHg 18%
    10:00 +35°C° 0 mm 4 mps 753 mmHg 15%
    11:00 +37°C° 0 mm 5 mps 753 mmHg 13%
    12:00 +39°C° 0 mm 6 mps 753 mmHg 12%
    13:00 +40°C° 0 mm 6 mps 752 mmHg 11%
    14:00 +41°C° 0 mm 7 mps 751 mmHg 9%
    15:00 +41°C° 0 mm 8 mps 751 mmHg 10%
    16:00 +40°C° 0 mm 9 mps 751 mmHg 10%
    17:00 +40°C° 0 mm 10 mps 751 mmHg 11%
    18:00 +38°C° 0 mm 8 mps 752 mmHg 11%
    19:00 +35°C° 0 mm 7 mps 752 mmHg 12%
    20:00 +33°C° 0 mm 6 mps 752 mmHg 12%
    21:00 +30°C° 0 mm 5 mps 753 mmHg 22%
    22:00 +27°C° 0 mm 5 mps 753 mmHg 32%
    23:00 +25°C° 0 mm 5 mps 754 mmHg 43%

    Tomorrow, 2 June, Tuesday

    Time Temperature Precipitation Wind Pressure Humidity
    00:00 +23°C° 0 mm 4 mps 753 mmHg 49%
    01:00 +22°C° 0 mm 3 mps 753 mmHg 55%
    02:00 +21°C° 0 mm 2 mps 753 mmHg 60%
    03:00 +20°C° 0 mm 2 mps 753 mmHg 64%
    04:00 +20°C° 0 mm 2 mps 753 mmHg 67%
    05:00 +19°C° 0 mm 2 mps 753 mmHg 71%
    06:00 +20°C° 0 mm 2 mps 754 mmHg 65%
    07:00 +21°C° 0 mm 2 mps 754 mmHg 60%
    08:00 +24°C° 0 mm 1 mps 754 mmHg 54%
    09:00 +26°C° 0 mm 1 mps 754 mmHg 46%
    10:00 +28°C° 0 mm 1 mps 754 mmHg 38%
    11:00 +30°C° 0 mm 1 mps 754 mmHg 30%
    12:00 +31°C° 0 mm 2 mps 753 mmHg 27%
    13:00 +34°C° 0 mm 3 mps 753 mmHg 23%
    14:00 +35°C° 0 mm 4 mps 752 mmHg 20%
    15:00 +35°C° 0 mm 5 mps 752 mmHg 20%
    16:00 +35°C° 0 mm 5 mps 752 mmHg 20%
    17:00 +36°C° 0 mm 5 mps 752 mmHg 20%
    18:00 +34°C° 0 mm 4 mps 752 mmHg 22%
    19:00 +33°C° 0 mm 4 mps 752 mmHg 24%
    20:00 +31°C° 0 mm 3 mps 752 mmHg 26%
    21:00 +29°C° 0 mm 4 mps 753 mmHg 31%
    22:00 +27°C° 0 mm 4 mps 753 mmHg 36%
    23:00 +26°C° 0 mm 5 mps 753 mmHg 42%

    Day after tomorrow, 3 June, Wednesday

    Time Temperature Precipitation Wind Pressure Humidity
    00:00 +25°C° 0 mm 5 mps 753 mmHg 43%
    01:00 +23°C° 0 mm 5 mps 752 mmHg 45%
    02:00 +22°C° 0 mm 5 mps 752 mmHg 47%
    03:00 +22°C° 0 mm 5 mps 752 mmHg 49%
    04:00 +21°C° 0 mm 5 mps 752 mmHg 51%
    05:00 +21°C° 0 mm 5 mps 752 mmHg 52%
    06:00 +22°C° 0 mm 5 mps 753 mmHg 51%
    07:00 +23°C° 0 mm 5 mps 753 mmHg 49%
    08:00 +25°C° 0 mm 5 mps 753 mmHg 47%
    09:00 +27°C° 0 mm 4 mps 753 mmHg 42%
    10:00 +29°C° 0 mm 3 mps 753 mmHg 37%
    11:00 +31°C° 0 mm 2 mps 753 mmHg 31%
    12:00 +34°C° 0 mm 2 mps 752 mmHg 28%
    13:00 +35°C° 0 mm 3 mps 752 mmHg 25%
    14:00 +37°C° 0 mm 3 mps 751 mmHg 21%
    15:00 +37°C° 0 mm 4 mps 751 mmHg 20%
    16:00 +37°C° 0 mm 5 mps 751 mmHg 19%
    17:00 +38°C° 0 mm 6 mps 751 mmHg 18%
    18:00 +36°C° 0 mm 6 mps 751 mmHg 20%
    19:00 +34°C° 0 mm 5 mps 752 mmHg 22%
    20:00 +32°C° 0 mm 4 mps 752 mmHg 24%
    21:00 +29°C° 0 mm 5 mps 753 mmHg 33%
    22:00 +27°C° 0 mm 6 mps 753 mmHg 41%
    23:00 +23°C° 0 mm 7 mps 754 mmHg 50%

    4 June, Thursday

    Time Temperature Precipitation Wind Pressure Humidity
    00:00 +23°C° 0 mm 6 mps 753 mmHg 52%
    01:00 +22°C° 0 mm 5 mps 753 mmHg 55%
    02:00 +21°C° 0 mm 4 mps 753 mmHg 57%
    03:00 +21°C° 0 mm 3 mps 753 mmHg 58%
    04:00 +20°C° 0 mm 3 mps 754 mmHg 60%
    05:00 +20°C° 0 mm 2 mps 754 mmHg 61%
    06:00 +21°C° 0 mm 3 mps 754 mmHg 57%
    07:00 +22°C° 0 mm 4 mps 755 mmHg 53%
    08:00 +23°C° 0 mm 4 mps 755 mmHg 50%
    09:00 +26°C° 0 mm 3 mps 755 mmHg 43%
    10:00 +28°C° 0 mm 3 mps 755 mmHg 37%
    11:00 +30°C° 0 mm 2 mps 755 mmHg 31%
    12:00 +32°C° 0 mm 2 mps 755 mmHg 27%
    13:00 +34°C° 0 mm 2 mps 755 mmHg 23%
    14:00 +35°C° 0 mm 2 mps 754 mmHg 19%
    15:00 +35°C° 0 mm 2 mps 754 mmHg 18%
    16:00 +35°C° 0 mm 2 mps 754 mmHg 17%
    17:00 +36°C° 0 mm 2 mps 754 mmHg 16%
    18:00 +34°C° 0 mm 2 mps 754 mmHg 18%
    19:00 +31°C° 0 mm 3 mps 754 mmHg 19%
    20:00 +30°C° 0 mm 3 mps 755 mmHg 21%
    21:00 +28°C° 0 mm 4 mps 755 mmHg 27%
    22:00 +27°C° 0 mm 6 mps 756 mmHg 34%
    23:00 +26°C° 0 mm 7 mps 756 mmHg 40%

    5 June, Friday

    Time Temperature Precipitation Wind Pressure Humidity
    00:00 +24°C° 0 mm 7 mps 756 mmHg 44%
    01:00 +23°C° 0 mm 6 mps 756 mmHg 47%
    02:00 +22°C° 0 mm 5 mps 756 mmHg 51%
    03:00 +21°C° 0 mm 4 mps 756 mmHg 54%
    04:00 +20°C° 0 mm 4 mps 756 mmHg 57%
    05:00 +20°C° 0 mm 4 mps 756 mmHg 59%
    06:00 +21°C° 0 mm 4 mps 756 mmHg 57%
    07:00 +22°C° 0 mm 4 mps 757 mmHg 54%
    08:00 +23°C° 0 mm 5 mps 757 mmHg 51%
    09:00 +26°C° 0 mm 4 mps 757 mmHg 43%
    10:00 +29°C° 0 mm 4 mps 757 mmHg 35%
    11:00 +31°C° 0 mm 3 mps 757 mmHg 27%
    12:00 +33°C° 0 mm 3 mps 757 mmHg 23%
    13:00 +34°C° 0 mm 3 mps 757 mmHg 19%
    14:00 +36°C° 0 mm 2 mps 756 mmHg 15%
    15:00 +36°C° 0 mm 2 mps 756 mmHg 14%
    16:00 +36°C° 0 mm 3 mps 755 mmHg 12%
    17:00 +37°C° 0 mm 3 mps 755 mmHg 10%
    18:00 +35°C° 0 mm 3 mps 755 mmHg 12%
    19:00 +33°C° 0 mm 3 mps 756 mmHg 13%
    20:00 +29°C° 0 mm 3 mps 756 mmHg 15%
    21:00 +29°C° 0 mm 3 mps 756 mmHg 16%
    22:00 +28°C° 0 mm 3 mps 757 mmHg 18%
    23:00 +28°C° 0 mm 4 mps 757 mmHg 19%

    6 June, Saturday

    Time Temperature Precipitation Wind Pressure Humidity
    00:00 +26°C° 0 mm 4 mps 757 mmHg 28%
    01:00 +25°C° 0 mm 4 mps 757 mmHg 36%
    02:00 +22°C° 0 mm 4 mps 757 mmHg 44%
    03:00 +22°C° 0 mm 4 mps 756 mmHg 47%
    04:00 +21°C° 0 mm 4 mps 756 mmHg 51%
    05:00 +20°C° 0 mm 4 mps 756 mmHg 54%
    06:00 +21°C° 0 mm 4 mps 757 mmHg 51%
    07:00 +22°C° 0 mm 4 mps 757 mmHg 47%
    08:00 +25°C° 0 mm 5 mps 757 mmHg 43%
    09:00 +27°C° 0 mm 4 mps 757 mmHg 36%
    10:00 +29°C° 0 mm 3 mps 757 mmHg 28%
    11:00 +33°C° 0 mm 3 mps 757 mmHg 21%
    12:00 +34°C° 0 mm 3 mps 756 mmHg 17%
    13:00 +36°C° 0 mm 3 mps 756 mmHg 14%
    14:00 +38°C° 0 mm 3 mps 755 mmHg 10%
    15:00 +38°C° 0 mm 3 mps 755 mmHg 10%
    16:00 +38°C° 0 mm 3 mps 754 mmHg 9%
    17:00 +38°C° 0 mm 2 mps 754 mmHg 8%
    18:00 +36°C° 0 mm 3 mps 754 mmHg 10%
    19:00 +34°C° 0 mm 3 mps 754 mmHg 11%
    20:00 +31°C° 0 mm 3 mps 754 mmHg 13%
    21:00 +30°C° 0 mm 3 mps 754 mmHg 14%
    22:00 +29°C° 0 mm 2 mps 754 mmHg 15%
    23:00 +28°C° 0 mm 2 mps 755 mmHg 17%
    Show more